This demonstration page uses our WeatherBlox Daily Observations layout. Learn more.

Left ArrowRight Arrow

39.92423, -83.80882

Hourly Observations for January 9, 2015

Temp ( °F °C ) Dew Point ( °F °C ) Humidity (%) Winds ( mph kmh ) Pressure ( in mb ) Visibility ( mi km ) Precip ( " mm )
12:56 am 00:56 Cloudy 20 -6.6 8 -13.3 59 59 WSW 24 39 29.98 1015 8 13 0.00 0.00
1:16 am 01:16 Windy with Snow Likely 19 -7 10 -12 68 68 WSW 23 37 30.03 1017 3 4 0.00 0.03
1:20 am 01:20 Mostly Cloudy with Light Snow 19 -7 10 -12 68 68 WSW 29 46 30.03 1017 2 2 0.00 0.03
1:47 am 01:47 Mostly Cloudy with Light Snow 19 -7 12 -11 73 73 WSW 26 43 30.03 1017 2 3 0.00 0.03
1:56 am 01:56 Windy with Snow Likely 20 -6.6 12 -11.1 71 71 WSW 23 37 30.00 1016 1 2 0.00 0.03
2:03 am 02:03 Windy with Snow Likely 19 -7 12 -11 73 73 WSW 21 33 30.03 1017 2 3 0.00 0.03
2:08 am 02:08 Mostly Cloudy with Light Snow 19 -7 12 -11 73 73 WSW 25 41 30.03 1017 2 3 0.00 0.03
2:23 am 02:23 Windy with Snow Likely 19 -7 12 -11 73 73 WSW 29 46 30.03 1017 2 3 0.00 0.03
2:27 am 02:27 Windy with Snow Likely 19 -7 12 -11 73 73 WSW 21 33 30.03 1017 2 3 0.00 0.03
2:34 am 02:34 Windy with Snow Likely 19 -7 12 -11 73 73 WSW 22 35 30.03 1017 2 3 0.00 0.03
2:56 am 02:56 Cloudy with Haze 20 -6.6 12 -11.1 71 71 WSW 26 43 30.01 1016 2 3 0.00 0.03
3:06 am 03:06 Cloudy with Haze 21 -6 10 -12 63 63 WSW 24 39 30.03 1017 3 5 0.00 0.03
3:56 am 03:56 Cloudy with Haze 21 -6.1 12 -11.1 68 68 WSW 23 37 30.02 1017 5 8 0.00 0.03
4:56 am 04:56 Windy with Snow Likely 21 -6.1 15 -9.4 78 78 W 26 43 30.06 1018 2 3 0.00 0.03
5:04 am 05:04 Mostly Cloudy with Light Snow 19 -7 16 -9 86 86 WNW 32 52 30.12 1020 1 2 0.00 0.03
5:08 am 05:08 Mostly Cloudy with Light Snow 19 -7 16 -9 86 86 W 25 41 30.12 1020 1 1 0.00 0.03
5:16 am 05:16 Mostly Cloudy with Light Snow 18 -8 12 -11 79 79 W 22 35 30.12 1020 1 2 0.00 0.03
5:19 am 05:19 Mostly Cloudy with Light Snow 18 -8 12 -11 79 79 W 20 31 30.12 1020 2 3 0.00 0.03
5:29 am 05:29 Windy with Snow Likely 18 -8 10 -12 73 73 W 23 37 30.15 1021 3 5 0.00 0.03
5:41 am 05:41 Cloudy with Haze 16 -9 7 -14 67 67 W 30 48 30.15 1021 4 6 0.00 0.03
5:56 am 05:56 Hazy 14 -10 5 -15 67 67 W 21 33 30.13 1020 5 8 0.00 0.03
6:48 am 06:48 Mostly Cloudy 12 -11 5 -15 73 73 W 16 26 30.24 1024 9 14 0.00 0.00
6:56 am 06:56 Cloudy 12 -11.1 5 -15 73 73 W 17 28 30.17 1022 8 13 0.00 0.00
7:56 am 07:56 Cloudy 11 -11.6 4 -15.5 73 73 W 16 26 30.21 1023 7 11 0.00 0.00
8:56 am 08:56 Mostly Sunny 10 -12.2 2 -16.6 70 70 W 17 28 30.25 1025 8 13 0.00 0.00
9:56 am 09:56 Sunny 11 -11.6 3 -16.1 70 70 W 18 30 30.29 1026 8 13 0.00 0.00
10:37 am 10:37 Mostly Cloudy with Haze 10 -12 3 -16 72 72 W 18 30 30.36 1028 6 10 0.00 0.00
10:56 am 10:56 Cloudy 11 -11.6 3 -16.1 70 70 W 20 31 30.31 1026 7 11 0.00 0.00
11:56 am 11:56 Cloudy with Haze 11 -11.6 3 -16.1 70 70 WSW 16 26 30.30 1026 6 10 0.00 0.00
12:38 pm 12:38 Mostly Cloudy with Light Snow 10 -12 1 -17 67 67 W 22 35 30.36 1028 4 6 0.00 0.03
12:56 pm 12:56 Mostly Cloudy 13 -10.5 2 -16.6 61 61 WSW 21 33 30.29 1026 9 14 0.00 0.03
1:19 pm 13:19 Mostly Cloudy 12 -11 1 -17 62 62 W 21 33 30.36 1028 7 11 0.00 0.00
1:33 pm 13:33 Mostly Cloudy 12 -11 1 -17 62 62 W 21 33 30.36 1028 7 11 0.00 0.00
1:43 pm 13:43 Mostly Cloudy 12 -11 1 -17 62 62 WSW 20 31 30.36 1028 8 13 0.00 0.00
1:56 pm 13:56 Mostly Cloudy 13 -10.5 1 -17.2 58 58 WSW 24 39 30.29 1026 8 13 0.00 0.00
2:06 pm 14:06 Mostly Cloudy 12 -11 0 -18 57 57 WSW 21 33 30.36 1028 8 13 0.00 0.00
2:56 pm 14:56 Partly Cloudy 12 -11.1 1 -17.2 61 61 WSW 22 35 30.31 1026 9 14 0.00 0.00
3:56 pm 15:56 Mostly Sunny 12 -11.1 0 -17.7 59 59 W 17 28 30.33 1027 9 14 0.00 0.00
4:56 pm 16:56 Sunny 10 -12.2 -2 -18.8 58 58 W 20 31 30.35 1028 9 14 0.00 0.00
5:56 pm 17:56 Clear 8 -13.3 -3 -19.4 60 60 W 15 24 30.38 1029 10 16 0.00 0.00
6:56 pm 18:56 Clear 7 -13.8 -4 -20 60 60 W 16 26 30.42 1030 10 16 0.00 0.00
7:56 pm 19:56 Clear 5 -15 -5 -20.5 63 63 W 14 22 30.45 1031 10 16 0.00 0.00
8:56 pm 20:56 Clear 5 -15 -5 -20.5 63 63 W 15 24 30.48 1032 10 16 0.00 0.00
9:56 pm 21:56 Clear 5 -15 -5 -20.5 63 63 W 13 20 30.49 1033 9 14 0.00 0.00
10:56 pm 22:56 Clear 4 -15.5 -5 -20.5 66 66 W 14 22 30.51 1033 10 16 0.00 0.00
11:31 pm 23:31 Mostly Cloudy 3 -16 -6 -21 66 66 W 13 20 30.56 1035 9 14 0.00 0.00
11:41 pm 23:41 Partly Cloudy 3 -16 -6 -21 66 66 W 13 20 30.56 1035 9 14 0.00 0.00
11:56 pm 23:56 Mostly Clear 3 -16.1 -5 -20.5 69 69 W 12 19 30.52 1034 9 14 0.00 0.00

Powered by AerisWeather